QFA6042 VOBL-YBBN

Flight info

Callsign QFA6042
Flight time N/A
Altitude 35000
Route TULNA W116 MMV P574 ELSAR/N0462F370 P574 PUGER DCT VESIS DCT SUKRI M630 BOBAG P501 ANITO B470 PKP L895 MIMIX/N0456F390 L895 SAPDA G222 BRM T11 ROM Y166 IDLEG V327 IGUPI Y340 LAMUG Y177 SMOKA
Aircraft A21N/M-SADE2E3GHIJ3J4J5LM1ORWYZ/LB1D1

Departure

Time 2026-04-27 01:19
Airport Kempegowda International Airport Bengaluru (VOBL)

Arrival

Time N/A
Airport Brisbane International Airport (YBBN)
Time Latitude Longitude Altitude Speed Heading
2026-04-27 01:03 13.20340 77.71447 3017 ft 0 kts
2026-04-27 01:11 13.20324 77.71447 3017 ft 4 kts
2026-04-27 01:12 13.20298 77.71446 3017 ft 3 kts
2026-04-27 01:12 13.20280 77.71443 3017 ft 4 kts 66°
2026-04-27 01:12 13.20279 77.71419 3017 ft 4 kts 92°
2026-04-27 01:12 13.20279 77.71424 3017 ft 4 kts 88°
2026-04-27 01:13 13.20278 77.71439 3017 ft 0 kts 101°
2026-04-27 01:15 13.20274 77.71456 3017 ft 5 kts 101°
2026-04-27 01:15 13.20265 77.71510 3017 ft 10 kts 100°
2026-04-27 01:15 13.20262 77.71602 3017 ft 16 kts 81°
2026-04-27 01:15 13.20258 77.71726 3017 ft 11 kts 89°
2026-04-27 01:16 13.20303 77.71787 3017 ft 15 kts
2026-04-27 01:16 13.20420 77.71789 3017 ft 19 kts
2026-04-27 01:16 13.20521 77.71809 3017 ft 16 kts 71°
2026-04-27 01:16 13.20519 77.71940 3017 ft 20 kts 91°
2026-04-27 01:17 13.20518 77.72086 3017 ft 16 kts 90°
2026-04-27 01:17 13.20518 77.72212 3017 ft 20 kts 91°
2026-04-27 01:17 13.20529 77.72275 3017 ft 9 kts 52°
2026-04-27 01:17 13.20568 77.72286 3017 ft 0 kts
2026-04-27 01:18 13.20602 77.72287 3017 ft 16 kts
2026-04-27 01:18 13.20686 77.72244 3017 ft 9 kts 284°
2026-04-27 01:18 13.20689 77.72220 3017 ft 0 kts 272°
2026-04-27 01:18 13.20690 77.72205 3017 ft 17 kts 272°
2026-04-27 01:19 13.20693 77.71819 3017 ft 91 kts 270°
2026-04-27 01:19 13.20699 77.70941 3016 ft 149 kts 271°
2026-04-27 01:19 13.20715 77.69755 3057 ft 180 kts 271°
2026-04-27 01:19 13.20735 77.68499 3665 ft 175 kts 270°
2026-04-27 01:20 13.20990 77.67273 4114 ft 183 kts 303°
2026-04-27 01:20 13.21917 77.66336 4637 ft 191 kts 315°
2026-04-27 01:20 13.22777 77.65265 5060 ft 200 kts 302°
2026-04-27 01:20 13.23534 77.64009 5511 ft 213 kts 299°
2026-04-27 01:21 13.24304 77.62656 5996 ft 226 kts 299°
2026-04-27 01:21 13.25120 77.61214 6431 ft 243 kts 299°
2026-04-27 01:21 13.26002 77.59649 6779 ft 263 kts 300°
2026-04-27 01:21 13.26943 77.57980 7236 ft 278 kts 300°
2026-04-27 01:22 13.27928 77.56222 7721 ft 291 kts 299°
2026-04-27 01:22 13.28716 77.54286 8314 ft 298 kts 283°
2026-04-27 01:22 13.28890 77.52210 8957 ft 302 kts 266°
2026-04-27 01:22 13.28366 77.50080 9573 ft 305 kts 241°
2026-04-27 01:23 13.26981 77.48450 10193 ft 308 kts 216°
2026-04-27 01:23 13.25115 77.47271 10564 ft 323 kts 208°
2026-04-27 01:23 13.23091 77.46128 10853 ft 341 kts 208°
2026-04-27 01:23 13.20918 77.45001 11011 ft 361 kts 201°
2026-04-27 01:24 13.18435 77.44317 11167 ft 379 kts 186°
2026-04-27 01:24 13.15758 77.44348 11370 ft 393 kts 169°
2026-04-27 01:24 13.13110 77.45180 11580 ft 405 kts 152°
2026-04-27 01:24 13.10754 77.46803 11800 ft 413 kts 135°
2026-04-27 01:25 13.08942 77.49084 12226 ft 413 kts 120°
2026-04-27 01:25 13.07510 77.51643 12751 ft 414 kts 113°
2026-04-27 01:25 13.06553 77.54416 13295 ft 413 kts 100°
2026-04-27 01:25 13.06211 77.57343 13859 ft 414 kts 91°
2026-04-27 01:26 13.06055 77.60300 14379 ft 417 kts 91°
2026-04-27 01:26 13.05895 77.63279 14899 ft 421 kts 91°
2026-04-27 01:26 13.05723 77.66290 15460 ft 425 kts 92°
2026-04-27 01:26 13.05546 77.69325 15993 ft 429 kts 92°
2026-04-27 01:27 13.05372 77.72393 16477 ft 432 kts 92°
2026-04-27 01:27 13.05192 77.75481 16951 ft 436 kts 92°
2026-04-27 01:27 13.04994 77.78594 17422 ft 439 kts 93°
2026-04-27 01:27 13.04803 77.81731 17865 ft 442 kts 93°
2026-04-27 01:28 13.04615 77.84887 18306 ft 445 kts 93°
2026-04-27 01:28 13.04427 77.88069 18724 ft 448 kts 93°
2026-04-27 01:28 13.04241 77.91274 19122 ft 452 kts 93°
2026-04-27 01:28 13.04044 77.94499 19532 ft 455 kts 93°
2026-04-27 01:29 13.03838 77.97743 19917 ft 458 kts 93°
2026-04-27 01:29 13.03629 78.01019 20294 ft 462 kts 93°
2026-04-27 01:29 13.03427 78.04309 20706 ft 464 kts 93°
2026-04-27 01:29 13.03220 78.07623 21142 ft 467 kts 93°
2026-04-27 01:30 13.03014 78.10958 21586 ft 471 kts 93°
2026-04-27 01:30 13.02812 78.14319 22027 ft 474 kts 93°
2026-04-27 01:30 13.02603 78.17705 22439 ft 477 kts 93°
2026-04-27 01:30 13.02400 78.21117 22811 ft 481 kts 93°
2026-04-27 01:31 13.02193 78.24545 23164 ft 484 kts 93°
2026-04-27 01:31 13.01982 78.28003 23489 ft 487 kts 93°
2026-04-27 01:31 13.01768 78.31474 23787 ft 490 kts 93°
2026-04-27 01:31 13.01549 78.34975 24083 ft 493 kts 93°
2026-04-27 01:32 13.01328 78.38478 24417 ft 493 kts 93°
2026-04-27 01:32 13.01106 78.41982 24783 ft 492 kts 93°
2026-04-27 01:32 13.00890 78.45490 25143 ft 492 kts 93°
2026-04-27 01:32 13.00675 78.48985 25501 ft 492 kts 93°
2026-04-27 01:33 13.00453 78.52482 25871 ft 491 kts 93°
2026-04-27 01:33 13.00233 78.55977 26240 ft 491 kts 93°
2026-04-27 01:33 13.00008 78.59471 26606 ft 491 kts 94°
2026-04-27 01:33 12.99773 78.62963 26986 ft 490 kts 94°
2026-04-27 01:34 12.99550 78.66452 27346 ft 490 kts 94°
2026-04-27 01:34 12.99329 78.69939 27729 ft 489 kts 94°
2026-04-27 01:34 12.99106 78.73373 28094 ft 489 kts 94°
2026-04-27 01:34 12.98885 78.76893 28447 ft 489 kts 94°
2026-04-27 01:35 12.98669 78.80373 28797 ft 489 kts 94°
2026-04-27 01:35 12.98433 78.83849 29141 ft 488 kts 94°
2026-04-27 01:35 12.98207 78.87321 29482 ft 488 kts 94°
2026-04-27 01:35 12.97988 78.90751 29821 ft 488 kts 94°
2026-04-27 01:36 12.97768 78.94270 30147 ft 488 kts 94°
2026-04-27 01:36 12.97549 78.97692 30476 ft 488 kts 94°
2026-04-27 01:36 12.97323 79.01160 30775 ft 488 kts 94°
2026-04-27 01:36 12.97093 79.04632 31090 ft 488 kts 94°
2026-04-27 01:37 12.96871 79.08105 31381 ft 488 kts 94°
2026-04-27 01:37 12.96813 79.11587 31653 ft 489 kts 89°
2026-04-27 01:37 12.96887 79.15073 31934 ft 489 kts 89°
2026-04-27 01:37 12.96959 79.18558 32211 ft 489 kts 89°
2026-04-27 01:38 12.97035 79.22045 32485 ft 489 kts 89°
2026-04-27 01:38 12.97108 79.25535 32734 ft 490 kts 89°
2026-04-27 01:38 12.97185 79.29025 32991 ft 490 kts 89°
2026-04-27 01:38 12.97255 79.32512 33226 ft 490 kts 89°
2026-04-27 01:39 12.97320 79.36009 33482 ft 490 kts 89°
2026-04-27 01:39 12.97382 79.39499 33706 ft 491 kts 90°
2026-04-27 01:39 12.97446 79.43000 33914 ft 491 kts 90°
2026-04-27 01:39 12.97516 79.46501 34160 ft 491 kts 90°
2026-04-27 01:40 12.97583 79.49999 34404 ft 490 kts 89°
2026-04-27 01:40 12.97659 79.53490 34640 ft 490 kts 90°
2026-04-27 01:40 12.97724 79.56978 34836 ft 490 kts 90°
2026-04-27 01:41 12.97827 79.63938 34879 ft 488 kts 90°
2026-04-27 01:41 12.97943 79.70891 34855 ft 487 kts 90°
2026-04-27 01:42 12.98086 79.77835 34849 ft 487 kts 90°
2026-04-27 01:42 12.98216 79.84789 34842 ft 488 kts 90°
2026-04-27 01:43 12.98330 79.91738 34839 ft 488 kts 90°
2026-04-27 01:43 12.98451 79.98690 34833 ft 488 kts 90°
2026-04-27 01:44 12.98573 80.05635 34826 ft 487 kts 90°
2026-04-27 01:44 12.98653 80.12566 34824 ft 486 kts 93°
2026-04-27 01:44 12.98240 80.15992 34817 ft 484 kts 104°
2026-04-27 01:45 12.97180 80.19250 34828 ft 482 kts 115°
2026-04-27 01:45 12.94413 80.25500 34824 ft 481 kts 116°
2026-04-27 01:46 12.91654 80.31738 34817 ft 481 kts 116°
2026-04-27 01:46 12.88926 80.37987 34827 ft 480 kts 116°
2026-04-27 01:47 12.86199 80.44231 34827 ft 480 kts 116°
2026-04-27 01:47 12.83466 80.50471 34825 ft 480 kts 116°
2026-04-27 01:48 12.80731 80.56703 34824 ft 480 kts 115°
2026-04-27 01:48 12.78000 80.62936 34825 ft 480 kts 116°
2026-04-27 01:49 12.75267 80.69158 34819 ft 479 kts 115°
2026-04-27 01:49 12.72534 80.75383 34824 ft 479 kts 115°
2026-04-27 01:50 12.69805 80.81598 34826 ft 479 kts 115°
2026-04-27 01:50 12.67077 80.87814 34828 ft 478 kts 115°
2026-04-27 01:51 12.64347 80.94027 34812 ft 478 kts 115°
2026-04-27 01:51 12.62074 80.99189 34812 ft 478 kts 115°
2026-04-27 01:52 12.59346 81.05389 34824 ft 477 kts 115°
2026-04-27 01:52 12.56621 81.11587 34818 ft 478 kts 115°
2026-04-27 01:53 12.53889 81.17782 34814 ft 477 kts 115°
2026-04-27 01:53 12.51161 81.23968 34813 ft 477 kts 115°
2026-04-27 01:54 12.48441 81.30157 34817 ft 476 kts 115°
2026-04-27 01:54 12.45713 81.36335 34815 ft 476 kts 115°
2026-04-27 01:55 12.42984 81.42505 34813 ft 476 kts 115°
2026-04-27 01:55 12.40255 81.48676 34824 ft 475 kts 115°
2026-04-27 01:56 12.36164 81.57913 34825 ft 475 kts 115°
2026-04-27 01:56 12.33438 81.64059 34826 ft 474 kts 115°
2026-04-27 01:57 12.30711 81.70198 34822 ft 474 kts 115°
2026-04-27 01:57 12.27986 81.76336 34814 ft 474 kts 115°
2026-04-27 01:58 12.25265 81.82465 34825 ft 473 kts 115°
2026-04-27 01:58 12.22540 81.88589 34825 ft 473 kts 115°
2026-04-27 01:59 12.19811 81.94713 34825 ft 473 kts 115°
2026-04-27 01:59 12.17082 82.00816 34825 ft 473 kts 115°
2026-04-27 02:00 12.14345 82.06929 34816 ft 473 kts 115°
2026-04-27 02:00 12.11619 82.13035 34823 ft 472 kts 115°
2026-04-27 02:01 12.08883 82.19138 34819 ft 472 kts 115°
2026-04-27 02:01 12.06163 82.25245 34813 ft 472 kts 115°
2026-04-27 02:02 12.03420 82.31347 34819 ft 473 kts 115°
2026-04-27 02:02 12.00717 82.37478 34827 ft 473 kts 115°
2026-04-27 02:03 11.97990 82.43593 34830 ft 473 kts 115°
2026-04-27 02:03 11.95265 82.49701 34830 ft 472 kts 115°
2026-04-27 02:04 11.92533 82.55807 34831 ft 473 kts 115°
2026-04-27 02:04 11.89795 82.61916 34830 ft 473 kts 115°
2026-04-27 02:05 11.87054 82.68024 34830 ft 473 kts 115°
2026-04-27 02:05 11.84310 82.74130 34831 ft 473 kts 115°
2026-04-27 02:06 11.81569 82.80231 34813 ft 473 kts 115°
2026-04-27 02:06 11.78819 82.86346 34832 ft 474 kts 115°
2026-04-27 02:07 11.76064 82.92467 34824 ft 474 kts 115°
2026-04-27 02:07 11.73306 82.98585 34831 ft 474 kts 115°
2026-04-27 02:08 11.70552 83.04688 34831 ft 473 kts 115°
2026-04-27 02:08 11.67798 83.10791 34831 ft 473 kts 115°
2026-04-27 02:09 11.65046 83.16893 34831 ft 474 kts 115°
2026-04-27 02:09 11.62287 83.22995 34830 ft 474 kts 115°
2026-04-27 02:10 11.59528 83.29096 34826 ft 474 kts 115°
2026-04-27 02:10 11.56788 83.35214 34818 ft 474 kts 114°
2026-04-27 02:11 11.54092 83.41353 34814 ft 475 kts 114°
2026-04-27 02:11 11.51391 83.47494 34826 ft 475 kts 114°
2026-04-27 02:12 11.48677 83.53629 34825 ft 475 kts 114°
2026-04-27 02:12 11.45968 83.59763 34819 ft 474 kts 114°
2026-04-27 02:13 11.43253 83.65895 34826 ft 475 kts 114°
2026-04-27 02:13 11.40544 83.72026 34830 ft 474 kts 114°
2026-04-27 02:14 11.37826 83.78161 34843 ft 474 kts 114°
2026-04-27 02:14 11.35113 83.84285 34857 ft 474 kts 114°
2026-04-27 02:15 11.32395 83.90413 34861 ft 475 kts 114°
2026-04-27 02:15 11.29672 83.96539 34860 ft 474 kts 114°
2026-04-27 02:16 11.26955 84.02661 34861 ft 474 kts 114°
2026-04-27 02:16 11.24203 84.08760 34861 ft 474 kts 114°
2026-04-27 02:17 11.21497 84.14875 34860 ft 474 kts 114°
2026-04-27 02:17 11.18803 84.20998 34861 ft 473 kts 114°
2026-04-27 02:18 11.16083 84.27105 34861 ft 473 kts 114°
2026-04-27 02:18 11.13366 84.33204 34861 ft 473 kts 114°
2026-04-27 02:19 11.10653 84.39295 34860 ft 472 kts 114°
2026-04-27 02:19 11.07944 84.45387 34860 ft 472 kts 114°
2026-04-27 02:20 11.05225 84.51478 34861 ft 472 kts 114°
2026-04-27 02:20 11.02512 84.57564 34861 ft 472 kts 114°
2026-04-27 02:21 10.99811 84.63605 34854 ft 472 kts 114°
2026-04-27 02:21 10.97096 84.69679 34850 ft 471 kts 114°
2026-04-27 02:22 10.94365 84.75789 34851 ft 471 kts 114°
2026-04-27 02:22 10.91642 84.81864 34850 ft 471 kts 114°
2026-04-27 02:23 10.88947 84.87886 34851 ft 471 kts 114°
2026-04-27 02:23 10.86231 84.93946 34850 ft 470 kts 114°
2026-04-27 02:24 10.83513 85.00002 34850 ft 470 kts 114°
2026-04-27 02:24 10.80800 85.06057 34850 ft 470 kts 114°
2026-04-27 02:25 10.78085 85.12111 34849 ft 470 kts 114°
2026-04-27 02:25 10.75368 85.18152 34850 ft 470 kts 114°
2026-04-27 02:26 10.72652 85.24192 34850 ft 469 kts 114°
2026-04-27 02:26 10.69937 85.30231 34850 ft 469 kts 114°
2026-04-27 02:27 10.67224 85.36260 34850 ft 469 kts 114°
2026-04-27 02:27 10.64503 85.42294 34850 ft 469 kts 114°
2026-04-27 02:28 10.61790 85.48313 34850 ft 468 kts 114°
2026-04-27 02:28 10.59073 85.54335 34851 ft 469 kts 114°
2026-04-27 02:29 10.56360 85.60350 34850 ft 468 kts 114°
2026-04-27 02:29 10.53648 85.66352 34850 ft 467 kts 114°
2026-04-27 02:30 10.50934 85.72353 34850 ft 467 kts 114°
2026-04-27 02:30 10.48241 85.78353 34850 ft 467 kts 114°
2026-04-27 02:31 10.45539 85.84351 34850 ft 466 kts 114°
2026-04-27 02:31 10.42834 85.90334 34851 ft 466 kts 114°
2026-04-27 02:32 10.40129 85.96314 34851 ft 466 kts 114°
2026-04-27 02:32 10.37877 86.01288 34850 ft 466 kts 114°
2026-04-27 02:33 10.35168 86.07266 34849 ft 465 kts 115°
2026-04-27 02:33 10.31997 86.14246 34851 ft 466 kts 115°
2026-04-27 02:34 10.29726 86.19250 34851 ft 466 kts 115°
2026-04-27 02:34 10.27030 86.25180 34851 ft 466 kts 114°
2026-04-27 02:35 10.24312 86.31150 34850 ft 466 kts 114°
2026-04-27 02:35 10.21604 86.37124 34850 ft 466 kts 114°
2026-04-27 02:36 10.18873 86.43137 34850 ft 466 kts 115°
2026-04-27 02:36 10.16172 86.49070 34850 ft 466 kts 115°
2026-04-27 02:37 10.13453 86.55050 34849 ft 467 kts 115°
2026-04-27 02:37 10.10723 86.61032 34849 ft 467 kts 114°
2026-04-27 02:38 10.07996 86.67018 34850 ft 468 kts 115°
2026-04-27 02:38 10.05262 86.73012 34850 ft 468 kts 114°
2026-04-27 02:39 10.02531 86.79000 34850 ft 468 kts 115°
2026-04-27 02:39 9.99787 86.84998 34849 ft 469 kts 114°
2026-04-27 02:40 9.97047 86.91005 34851 ft 468 kts 114°
2026-04-27 02:40 9.94312 86.96992 34840 ft 468 kts 114°
2026-04-27 02:41 9.91550 87.03029 34846 ft 469 kts 114°
2026-04-27 02:41 9.88819 87.08986 34850 ft 469 kts 114°
2026-04-27 02:42 9.86068 87.14983 34850 ft 469 kts 114°
2026-04-27 02:42 9.83323 87.20985 34849 ft 469 kts 114°
2026-04-27 02:43 9.80569 87.26997 34850 ft 470 kts 114°
2026-04-27 02:43 9.77808 87.33004 34861 ft 470 kts 114°
2026-04-27 02:44 9.75094 87.39027 34878 ft 470 kts 113°
2026-04-27 02:44 9.72437 87.45082 34879 ft 470 kts 113°
2026-04-27 02:45 9.69769 87.51133 34880 ft 471 kts 114°
2026-04-27 02:45 9.67080 87.57186 34882 ft 471 kts 114°
2026-04-27 02:46 9.64404 87.63236 34878 ft 471 kts 113°
2026-04-27 02:46 9.61728 87.69291 34885 ft 471 kts 113°
2026-04-27 02:47 9.59044 87.75349 34881 ft 471 kts 114°
2026-04-27 02:47 9.56337 87.81384 34882 ft 471 kts 114°
2026-04-27 02:48 9.53643 87.87436 34880 ft 471 kts 114°
2026-04-27 02:48 9.50958 87.93483 34883 ft 471 kts 114°
2026-04-27 02:49 9.48272 87.99538 34880 ft 471 kts 114°
2026-04-27 02:49 9.45584 88.05588 34880 ft 471 kts 114°
2026-04-27 02:50 9.42892 88.11642 34879 ft 471 kts 114°
2026-04-27 02:50 9.40199 88.17694 34879 ft 471 kts 114°
2026-04-27 02:51 9.37503 88.23750 34882 ft 472 kts 114°
2026-04-27 02:51 9.34812 88.29806 34890 ft 472 kts 114°
2026-04-27 02:52 9.32118 88.35857 34892 ft 471 kts 114°
2026-04-27 02:52 9.29449 88.41910 34890 ft 471 kts 114°
2026-04-27 02:53 9.26776 88.47960 34890 ft 471 kts 114°
2026-04-27 02:53 9.24078 88.54003 34891 ft 471 kts 114°
2026-04-27 02:54 9.21379 88.60053 34890 ft 471 kts 114°
2026-04-27 02:54 9.18673 88.66093 34890 ft 471 kts 114°
2026-04-27 02:55 9.15977 88.72139 34890 ft 471 kts 114°
2026-04-27 02:55 9.13274 88.78180 34891 ft 471 kts 114°
2026-04-27 02:56 9.10566 88.84221 34890 ft 471 kts 114°
2026-04-27 02:56 9.07865 88.90265 34891 ft 471 kts 114°
2026-04-27 02:57 9.05165 88.96313 34889 ft 472 kts 114°
2026-04-27 02:57 9.02460 89.02353 34890 ft 472 kts 114°
2026-04-27 02:58 8.99751 89.08392 34890 ft 472 kts 114°
2026-04-27 02:58 8.97036 89.14434 34890 ft 472 kts 114°
2026-04-27 02:59 8.94331 89.20476 34891 ft 472 kts 115°
2026-04-27 02:59 8.91613 89.26512 34891 ft 472 kts 114°
2026-04-27 03:00 8.88904 89.32556 34890 ft 472 kts 114°
2026-04-27 03:00 8.86191 89.38591 34890 ft 472 kts 114°
2026-04-27 03:01 8.83476 89.44634 34890 ft 472 kts 114°
2026-04-27 03:01 8.80773 89.50674 34890 ft 472 kts 114°
2026-04-27 03:02 8.78054 89.56706 34891 ft 472 kts 114°
2026-04-27 03:02 8.75334 89.62739 34890 ft 472 kts 114°
2026-04-27 03:03 8.71265 89.71785 34890 ft 471 kts 114°
2026-04-27 03:04 8.68555 89.77805 34890 ft 471 kts 114°
2026-04-27 03:04 8.65839 89.83818 34890 ft 471 kts 114°
2026-04-27 03:05 8.63120 89.89839 34890 ft 471 kts 115°
2026-04-27 03:05 8.60400 89.95855 34890 ft 471 kts 114°
2026-04-27 03:06 8.57695 90.01876 34890 ft 471 kts 114°
2026-04-27 03:06 8.54970 90.07886 34891 ft 471 kts 115°
2026-04-27 03:07 8.52253 90.13902 34889 ft 471 kts 115°
2026-04-27 03:07 8.49533 90.19921 34890 ft 471 kts 115°
2026-04-27 03:08 8.46810 90.25938 34890 ft 471 kts 115°
2026-04-27 03:08 8.44095 90.31950 34890 ft 471 kts 115°
2026-04-27 03:09 8.41363 90.37959 34890 ft 471 kts 114°
2026-04-27 03:09 8.38635 90.43966 34890 ft 470 kts 115°
2026-04-27 03:10 8.35918 90.49979 34891 ft 471 kts 114°
2026-04-27 03:10 8.33192 90.55988 34889 ft 471 kts 115°
2026-04-27 03:11 8.30462 90.61990 34890 ft 471 kts 115°
2026-04-27 03:11 8.27734 90.68011 34890 ft 472 kts 115°
2026-04-27 03:12 8.25005 90.74032 34891 ft 472 kts 115°
2026-04-27 03:12 8.22732 90.79035 34890 ft 472 kts 114°
2026-04-27 03:13 8.19528 90.86064 34890 ft 472 kts 115°
2026-04-27 03:13 8.17246 90.91062 34890 ft 472 kts 115°
2026-04-27 03:14 8.14050 90.98110 34890 ft 473 kts 114°
2026-04-27 03:14 8.11767 91.03114 34890 ft 471 kts 114°
2026-04-27 03:15 8.09041 91.09107 34890 ft 469 kts 114°
2026-04-27 03:15 8.06327 91.15096 34890 ft 470 kts 114°
2026-04-27 03:16 8.03599 91.21083 34890 ft 470 kts 114°
2026-04-27 03:16 8.00857 91.27059 34890 ft 469 kts 114°
2026-04-27 03:17 7.98139 91.33039 34890 ft 468 kts 114°
2026-04-27 03:17 7.95411 91.38992 34889 ft 467 kts 114°
2026-04-27 03:18 7.92686 91.44947 34890 ft 467 kts 114°
2026-04-27 03:18 7.89968 91.50903 34891 ft 467 kts 114°
2026-04-27 03:19 7.87249 91.56860 34891 ft 468 kts 114°
2026-04-27 03:19 7.84526 91.62817 34890 ft 468 kts 114°
2026-04-27 03:20 7.81809 91.68782 34890 ft 468 kts 114°
2026-04-27 03:20 7.79160 91.74773 34891 ft 468 kts 113°
2026-04-27 03:21 7.76526 91.80782 34890 ft 468 kts 114°
2026-04-27 03:21 7.73881 91.86781 34890 ft 468 kts 114°
2026-04-27 03:22 7.71232 91.92776 34891 ft 468 kts 114°
2026-04-27 03:22 7.68586 91.98775 34890 ft 468 kts 114°
2026-04-27 03:23 7.65939 92.04772 34890 ft 468 kts 114°
2026-04-27 03:23 7.63295 92.10772 34890 ft 468 kts 114°
2026-04-27 03:24 7.60644 92.16761 34890 ft 468 kts 114°
2026-04-27 03:24 7.57988 92.22745 34890 ft 468 kts 114°
2026-04-27 03:25 7.55331 92.28730 34890 ft 468 kts 114°
2026-04-27 03:25 7.52682 92.34709 34890 ft 467 kts 114°
2026-04-27 03:26 7.50059 92.40650 34891 ft 467 kts 114°
2026-04-27 03:26 7.47397 92.46668 34890 ft 467 kts 114°
2026-04-27 03:27 7.44752 92.52635 34890 ft 467 kts 114°
2026-04-27 03:27 7.42108 92.58605 34890 ft 466 kts 114°
2026-04-27 03:28 7.39456 92.64564 34890 ft 466 kts 114°
2026-04-27 03:28 7.36809 92.70524 34885 ft 466 kts 113°
2026-04-27 03:29 7.34154 92.76475 34881 ft 466 kts 114°
2026-04-27 03:29 7.31507 92.82433 34879 ft 466 kts 114°
2026-04-27 03:30 7.28875 92.88389 34881 ft 466 kts 114°
2026-04-27 03:30 7.26229 92.94342 34881 ft 465 kts 114°
2026-04-27 03:31 7.23563 93.00279 34882 ft 465 kts 114°
2026-04-27 03:31 7.20943 93.06194 34880 ft 465 kts 114°
2026-04-27 03:32 7.18283 93.12178 34879 ft 465 kts 114°
2026-04-27 03:32 7.15637 93.18122 34880 ft 465 kts 114°
2026-04-27 03:33 7.12988 93.24066 34877 ft 465 kts 114°
2026-04-27 03:33 7.10358 93.29974 34879 ft 465 kts 114°
2026-04-27 03:34 7.07693 93.35952 34879 ft 465 kts 114°
2026-04-27 03:34 7.05051 93.41852 34880 ft 465 kts 114°
2026-04-27 03:35 7.02407 93.47790 34880 ft 465 kts 114°
2026-04-27 03:35 6.99751 93.53719 34879 ft 464 kts 114°
2026-04-27 03:36 6.97103 93.59643 34883 ft 464 kts 114°
2026-04-27 03:36 6.94466 93.65574 34882 ft 464 kts 114°
2026-04-27 03:37 6.91815 93.71502 34880 ft 464 kts 114°
2026-04-27 03:37 6.89162 93.77418 34881 ft 464 kts 114°
2026-04-27 03:38 6.86516 93.83342 34879 ft 464 kts 114°
2026-04-27 03:38 6.83865 93.89263 34880 ft 464 kts 114°
2026-04-27 03:39 6.81209 93.95170 34883 ft 464 kts 114°
2026-04-27 03:39 6.78569 94.01095 34883 ft 464 kts 114°
2026-04-27 03:40 6.75926 94.07007 34880 ft 464 kts 114°
2026-04-27 03:40 6.73275 94.12915 34878 ft 463 kts 114°
2026-04-27 03:41 6.70621 94.18809 34879 ft 462 kts 114°
2026-04-27 03:41 6.67976 94.24705 34881 ft 462 kts 114°
2026-04-27 03:42 6.65338 94.30604 34880 ft 462 kts 114°
2026-04-27 03:42 6.62689 94.36503 34878 ft 462 kts 114°
2026-04-27 03:43 6.59978 94.42361 34879 ft 462 kts 117°
2026-04-27 03:43 6.56864 94.48025 34879 ft 463 kts 118°
2026-04-27 03:44 6.53732 94.53672 34878 ft 462 kts 118°
2026-04-27 03:44 6.50601 94.59323 34879 ft 462 kts 118°
2026-04-27 03:45 6.47471 94.64972 34881 ft 462 kts 118°
2026-04-27 03:45 6.44343 94.70617 34879 ft 463 kts 119°
2026-04-27 03:46 6.41207 94.76276 34878 ft 463 kts 118°
2026-04-27 03:46 6.38075 94.81937 34879 ft 463 kts 119°
2026-04-27 03:47 6.34933 94.87587 34880 ft 463 kts 118°
2026-04-27 03:47 6.31818 94.93210 34879 ft 463 kts 119°
2026-04-27 03:48 6.28680 94.98869 34881 ft 463 kts 118°
2026-04-27 03:48 6.25544 95.04526 34880 ft 463 kts 119°
2026-04-27 03:49 6.22407 95.10178 34880 ft 463 kts 118°
2026-04-27 03:49 6.19290 95.15841 34879 ft 463 kts 118°
2026-04-27 03:50 6.16167 95.21506 34879 ft 464 kts 118°
2026-04-27 03:50 6.13028 95.27169 34879 ft 463 kts 118°
2026-04-27 03:51 6.09907 95.32835 34883 ft 463 kts 118°
2026-04-27 03:51 6.06788 95.38498 34884 ft 463 kts 118°
2026-04-27 03:52 6.03668 95.44160 34879 ft 463 kts 118°
2026-04-27 03:52 6.00540 95.49820 34879 ft 463 kts 119°
2026-04-27 03:53 5.97445 95.55492 34879 ft 462 kts 118°
2026-04-27 03:53 5.94404 95.61179 34882 ft 462 kts 117°
2026-04-27 03:54 5.91355 95.66873 34879 ft 463 kts 118°
2026-04-27 03:54 5.88288 95.72556 34883 ft 463 kts 118°
2026-04-27 03:55 5.85223 95.78246 34880 ft 463 kts 118°
2026-04-27 03:55 5.82678 95.82971 34879 ft 463 kts 118°
2026-04-27 03:56 5.79625 95.88669 34879 ft 463 kts 118°
2026-04-27 03:56 5.76560 95.94360 34879 ft 463 kts 118°
2026-04-27 03:57 5.72976 96.01004 34879 ft 463 kts 118°
2026-04-27 03:57 5.70425 96.05732 34880 ft 463 kts 118°
2026-04-27 03:58 5.67365 96.11417 34879 ft 463 kts 118°
2026-04-27 03:58 5.64259 96.17085 34879 ft 463 kts 118°
2026-04-27 03:59 5.61174 96.22766 34879 ft 463 kts 118°
2026-04-27 03:59 5.58121 96.28450 34878 ft 463 kts 118°
2026-04-27 04:00 5.55075 96.34142 34880 ft 463 kts 117°
2026-04-27 04:00 5.52000 96.39826 34879 ft 463 kts 118°
2026-04-27 04:01 5.48923 96.45504 34880 ft 463 kts 118°
2026-04-27 04:01 5.45849 96.51179 34880 ft 463 kts 118°
2026-04-27 04:02 5.42767 96.56853 34879 ft 463 kts 118°
2026-04-27 04:02 5.39709 96.62537 34879 ft 463 kts 117°
2026-04-27 04:03 5.36648 96.68214 34879 ft 463 kts 118°
2026-04-27 04:03 5.33578 96.73894 34879 ft 463 kts 118°
2026-04-27 04:04 5.30513 96.79576 34879 ft 463 kts 118°
2026-04-27 04:04 5.27452 96.85262 34882 ft 463 kts 118°
2026-04-27 04:05 5.24377 96.90944 34879 ft 463 kts 118°
2026-04-27 04:05 5.21294 96.96617 34879 ft 463 kts 118°
2026-04-27 04:06 5.18189 97.02282 34880 ft 464 kts 118°
2026-04-27 04:06 5.15101 97.07966 34880 ft 464 kts 118°
2026-04-27 04:07 5.10490 97.16488 34880 ft 463 kts 117°
2026-04-27 04:07 5.07406 97.22171 34881 ft 464 kts 117°
2026-04-27 04:08 5.04339 97.27855 34881 ft 464 kts 118°
2026-04-27 04:08 5.01245 97.33536 34879 ft 464 kts 118°
2026-04-27 04:09 4.98155 97.39220 34880 ft 464 kts 118°
2026-04-27 04:09 4.95068 97.44904 34880 ft 464 kts 117°
2026-04-27 04:10 4.91983 97.50596 34878 ft 464 kts 117°
2026-04-27 04:10 4.88899 97.56283 34879 ft 464 kts 117°
2026-04-27 04:11 4.85811 97.61961 34880 ft 464 kts 117°
2026-04-27 04:11 4.82725 97.67649 34878 ft 464 kts 117°
2026-04-27 04:12 4.79663 97.73300 34880 ft 464 kts 117°
2026-04-27 04:12 4.76548 97.79023 34882 ft 465 kts 118°
2026-04-27 04:13 4.73452 97.84712 34878 ft 465 kts 118°
2026-04-27 04:13 4.70376 97.90366 34878 ft 465 kts 118°
2026-04-27 04:14 4.67290 97.96110 34880 ft 465 kts 117°
2026-04-27 04:14 4.64208 98.01805 34881 ft 465 kts 117°
2026-04-27 04:15 4.61109 98.07494 34880 ft 465 kts 118°
2026-04-27 04:15 4.58033 98.13140 34882 ft 465 kts 118°
2026-04-27 04:16 4.54941 98.18831 34880 ft 465 kts 118°
2026-04-27 04:16 4.51848 98.24519 34879 ft 465 kts 118°
2026-04-27 04:17 4.48750 98.30204 34877 ft 465 kts 118°
2026-04-27 04:17 4.45654 98.35888 34878 ft 465 kts 118°
2026-04-27 04:18 4.42555 98.41572 34879 ft 465 kts 118°
2026-04-27 04:18 4.39444 98.47251 34878 ft 465 kts 118°
2026-04-27 04:19 4.36348 98.52929 34878 ft 465 kts 118°
2026-04-27 04:19 4.33247 98.58608 34877 ft 464 kts 118°
2026-04-27 04:20 4.30154 98.64292 34879 ft 464 kts 118°
2026-04-27 04:20 4.27055 98.69970 34881 ft 464 kts 118°
2026-04-27 04:21 4.23960 98.75645 34879 ft 464 kts 118°
2026-04-27 04:21 4.20866 98.81314 34880 ft 464 kts 118°
2026-04-27 04:22 4.17772 98.86980 34877 ft 463 kts 118°
2026-04-27 04:22 4.14684 98.92641 34879 ft 463 kts 118°
2026-04-27 04:23 4.11607 98.98306 34880 ft 463 kts 118°
2026-04-27 04:23 4.08518 99.03956 34879 ft 462 kts 118°
2026-04-27 04:24 4.05426 99.09587 34880 ft 462 kts 118°
2026-04-27 04:24 4.02352 99.15232 34881 ft 461 kts 118°
2026-04-27 04:25 3.99281 99.20867 34880 ft 460 kts 118°
2026-04-27 04:25 3.96216 99.26478 34879 ft 458 kts 118°
2026-04-27 04:26 3.93152 99.32069 34880 ft 458 kts 118°
2026-04-27 04:26 3.90085 99.37673 34881 ft 458 kts 118°
2026-04-27 04:27 3.87024 99.43264 34879 ft 458 kts 118°
2026-04-27 04:27 3.83966 99.48859 34882 ft 458 kts 118°
2026-04-27 04:28 3.80910 99.54447 34879 ft 458 kts 118°
2026-04-27 04:28 3.77856 99.60043 34880 ft 458 kts 118°
2026-04-27 04:29 3.74802 99.65622 34879 ft 457 kts 118°
2026-04-27 04:29 3.71736 99.71191 34879 ft 457 kts 118°
2026-04-27 04:30 3.68677 99.76770 34879 ft 457 kts 118°
2026-04-27 04:30 3.65631 99.82348 34879 ft 457 kts 118°
2026-04-27 04:31 3.62564 99.87912 34883 ft 457 kts 118°
2026-04-27 04:31 3.59515 99.93492 34881 ft 457 kts 118°
2026-04-27 04:32 3.56463 99.99077 34880 ft 457 kts 118°
2026-04-27 04:32 3.53415 100.04600 34881 ft 456 kts 118°
2026-04-27 04:33 3.50346 100.10206 34880 ft 456 kts 118°
2026-04-27 04:33 3.47300 100.15763 34880 ft 455 kts 118°
2026-04-27 04:34 3.44276 100.21287 34880 ft 456 kts 118°
2026-04-27 04:34 3.41215 100.26840 34879 ft 455 kts 118°
2026-04-27 04:35 3.38377 100.32507 34880 ft 455 kts 115°
2026-04-27 04:35 3.35696 100.38249 34882 ft 456 kts 115°
2026-04-27 04:36 3.33034 100.44012 34880 ft 456 kts 115°
2026-04-27 04:36 3.30367 100.49761 34879 ft 455 kts 115°
2026-04-27 04:37 3.28128 100.54565 34878 ft 455 kts 115°
2026-04-27 04:37 3.25018 100.61228 34880 ft 455 kts 115°
2026-04-27 04:38 3.22792 100.65990 34879 ft 455 kts 115°
2026-04-27 04:38 3.19668 100.72691 34877 ft 455 kts 115°
2026-04-27 04:39 3.16989 100.78426 34880 ft 455 kts 115°
2026-04-27 04:39 3.14311 100.84158 34883 ft 455 kts 115°
2026-04-27 04:40 3.12069 100.88957 34881 ft 454 kts 115°
2026-04-27 04:40 3.09411 100.94639 34873 ft 454 kts 115°
2026-04-27 04:41 3.06132 101.00009 34874 ft 455 kts 128°
2026-04-27 04:41 3.02044 101.04837 34873 ft 454 kts 130°
2026-04-27 04:42 2.97953 101.09651 34869 ft 454 kts 129°
2026-04-27 04:42 2.93871 101.14488 34870 ft 454 kts 129°
2026-04-27 04:43 2.89786 101.19310 34870 ft 454 kts 130°
2026-04-27 04:43 2.85706 101.24124 34865 ft 453 kts 129°
2026-04-27 04:44 2.81651 101.28963 34859 ft 454 kts 129°
2026-04-27 04:44 2.77592 101.33792 34859 ft 454 kts 129°
2026-04-27 04:45 2.73528 101.38612 34859 ft 454 kts 129°
2026-04-27 04:45 2.69444 101.43430 34851 ft 454 kts 130°
2026-04-27 04:46 2.65378 101.48248 34851 ft 454 kts 129°
2026-04-27 04:46 2.61299 101.53063 34851 ft 453 kts 129°
2026-04-27 04:47 2.57239 101.57879 34849 ft 453 kts 129°
2026-04-27 04:47 2.53198 101.62701 34850 ft 453 kts 129°
2026-04-27 04:48 2.49139 101.67516 34851 ft 453 kts 129°
2026-04-27 04:48 2.45074 101.72323 34850 ft 452 kts 129°
2026-04-27 04:49 2.41016 101.77131 34851 ft 452 kts 129°
2026-04-27 04:49 2.36948 101.81941 34857 ft 452 kts 129°
2026-04-27 04:50 2.32893 101.86738 34859 ft 452 kts 129°
2026-04-27 04:50 2.28841 101.91540 34860 ft 451 kts 129°
2026-04-27 04:51 2.24786 101.96331 34869 ft 451 kts 129°
2026-04-27 04:51 2.20738 102.01128 34870 ft 451 kts 129°
2026-04-27 04:52 2.16697 102.05934 34875 ft 451 kts 129°
2026-04-27 04:52 2.12640 102.10722 34871 ft 451 kts 129°
2026-04-27 04:53 2.08593 102.15520 34870 ft 451 kts 129°
2026-04-27 04:53 2.04545 102.20319 34869 ft 451 kts 129°
2026-04-27 04:54 2.00494 102.25112 34870 ft 451 kts 129°
2026-04-27 04:54 1.96466 102.29874 34873 ft 451 kts 129°
2026-04-27 04:55 1.92411 102.34665 34879 ft 451 kts 129°
2026-04-27 04:55 1.88354 102.39456 34879 ft 451 kts 129°
2026-04-27 04:56 1.84296 102.44246 34880 ft 451 kts 129°
2026-04-27 04:56 1.80249 102.49044 34881 ft 451 kts 129°
2026-04-27 04:57 1.76201 102.53847 34882 ft 452 kts 129°
2026-04-27 04:57 1.72149 102.58642 34880 ft 452 kts 129°
2026-04-27 04:58 1.68095 102.63437 34881 ft 452 kts 129°
2026-04-27 04:58 1.64041 102.68232 34880 ft 452 kts 129°
2026-04-27 04:59 1.59982 102.73031 34877 ft 452 kts 129°
2026-04-27 04:59 1.55927 102.77825 34871 ft 452 kts 129°
2026-04-27 05:00 1.51867 102.82625 34870 ft 452 kts 129°
2026-04-27 05:00 1.47810 102.87421 34870 ft 452 kts 129°
2026-04-27 05:01 1.43752 102.92218 34870 ft 452 kts 129°
2026-04-27 05:01 1.39691 102.97018 34870 ft 452 kts 129°
2026-04-27 05:02 1.36021 103.02110 34879 ft 452 kts 123°
2026-04-27 05:03 1.30805 103.09944 34870 ft 451 kts 123°
2026-04-27 05:03 1.27318 103.15167 34870 ft 451 kts 123°
2026-04-27 05:04 1.23836 103.20380 34870 ft 451 kts 123°
2026-04-27 05:04 1.20357 103.25589 34870 ft 451 kts 123°
2026-04-27 05:05 1.16876 103.30800 34870 ft 451 kts 123°
2026-04-27 05:05 1.13391 103.36015 34870 ft 451 kts 123°
2026-04-27 05:06 1.09909 103.41220 34872 ft 451 kts 123°
2026-04-27 05:06 1.06426 103.46429 34880 ft 451 kts 123°
2026-04-27 05:07 1.02645 103.51423 34880 ft 453 kts 132°
2026-04-27 05:07 0.98257 103.55957 34884 ft 454 kts 133°
2026-04-27 05:08 0.93858 103.60476 34901 ft 453 kts 133°
2026-04-27 05:08 0.89469 103.65005 34900 ft 454 kts 133°
2026-04-27 05:09 0.85074 103.69531 34881 ft 454 kts 133°
2026-04-27 05:09 0.80684 103.74059 34874 ft 454 kts 133°
2026-04-27 05:10 0.76297 103.78603 34870 ft 454 kts 133°
2026-04-27 05:10 0.71899 103.83140 34870 ft 455 kts 133°
2026-04-27 05:11 0.67497 103.87690 34874 ft 456 kts 133°
2026-04-27 05:11 0.63093 103.92246 34874 ft 456 kts 133°
2026-04-27 05:12 0.58690 103.96801 34877 ft 456 kts 133°
2026-04-27 05:12 0.54282 104.01353 34877 ft 456 kts 133°
2026-04-27 05:13 0.49870 104.05907 34869 ft 456 kts 133°
2026-04-27 05:13 0.45458 104.10466 34874 ft 457 kts 133°
2026-04-27 05:14 0.41037 104.15028 34871 ft 457 kts 133°
2026-04-27 05:14 0.36621 104.19582 34870 ft 457 kts 133°
2026-04-27 05:15 0.32205 104.24145 34870 ft 457 kts 133°
2026-04-27 05:15 0.27784 104.28710 34869 ft 457 kts 133°
2026-04-27 05:16 0.23368 104.33268 34870 ft 457 kts 133°
2026-04-27 05:16 0.18949 104.37824 34872 ft 457 kts 133°
2026-04-27 05:17 0.14529 104.42389 34870 ft 457 kts 132°
2026-04-27 05:17 0.10113 104.46954 34869 ft 457 kts 133°
2026-04-27 05:18 0.05700 104.51511 34870 ft 457 kts 133°
2026-04-27 05:18 0.01282 104.56076 34869 ft 457 kts 133°
2026-04-27 05:19 -0.03106 104.60602 34868 ft 457 kts 133°
2026-04-27 05:19 -0.07523 104.65159 34870 ft 457 kts 133°
2026-04-27 05:20 -0.11941 104.69719 34869 ft 457 kts 133°
2026-04-27 05:20 -0.16362 104.74280 34869 ft 456 kts 132°
2026-04-27 05:21 -0.20777 104.78842 34872 ft 456 kts 133°
2026-04-27 05:21 -0.25189 104.83399 34874 ft 456 kts 133°
2026-04-27 05:22 -0.29852 104.87696 34872 ft 458 kts 143°
2026-04-27 05:22 -0.34267 104.90707 34871 ft 459 kts 144°
2026-04-27 05:23 -0.39569 104.94259 34871 ft 458 kts 144°
2026-04-27 05:23 -0.44818 104.97806 34870 ft 458 kts 144°
2026-04-27 05:24 -0.50099 105.01381 34869 ft 458 kts 144°
2026-04-27 05:24 -0.55377 105.04950 34862 ft 458 kts 144°
2026-04-27 05:25 -0.60661 105.08524 34861 ft 458 kts 144°
2026-04-27 05:25 -0.65934 105.12094 34860 ft 458 kts 144°
2026-04-27 05:26 -0.71214 105.15666 34860 ft 458 kts 144°
2026-04-27 05:26 -0.76491 105.19238 34860 ft 458 kts 144°
2026-04-27 05:27 -0.81765 105.22807 34860 ft 457 kts 144°
2026-04-27 05:27 -0.87034 105.26374 34860 ft 457 kts 144°
2026-04-27 05:28 -0.92296 105.29936 34861 ft 457 kts 144°
2026-04-27 05:28 -0.97564 105.33499 34860 ft 457 kts 144°
2026-04-27 05:29 -1.02832 105.37063 34860 ft 457 kts 144°
2026-04-27 05:29 -1.08093 105.40624 34860 ft 457 kts 144°
2026-04-27 05:30 -1.13357 105.44187 34861 ft 457 kts 144°
2026-04-27 05:30 -1.18617 105.47750 34860 ft 456 kts 144°
2026-04-27 05:31 -1.23873 105.51307 34860 ft 456 kts 144°
2026-04-27 05:31 -1.29132 105.54867 34860 ft 456 kts 144°
2026-04-27 05:32 -1.34384 105.58421 34852 ft 455 kts 144°
2026-04-27 05:32 -1.39626 105.61971 34853 ft 455 kts 144°
2026-04-27 05:33 -1.44874 105.65526 34850 ft 455 kts 144°
2026-04-27 05:33 -1.50113 105.69074 34847 ft 455 kts 144°
2026-04-27 05:34 -1.55346 105.72617 34850 ft 454 kts 144°
2026-04-27 05:34 -1.60581 105.76162 34851 ft 454 kts 144°
2026-04-27 05:35 -1.65808 105.79702 34850 ft 454 kts 144°
2026-04-27 05:35 -1.71034 105.83239 34851 ft 454 kts 144°
2026-04-27 05:36 -1.76254 105.86776 34849 ft 453 kts 144°
2026-04-27 05:36 -1.81476 105.90315 34849 ft 453 kts 144°
2026-04-27 05:37 -1.86689 105.93844 34850 ft 452 kts 144°
2026-04-27 05:37 -1.91866 105.97352 34849 ft 453 kts 144°
2026-04-27 05:38 -1.97114 106.00906 34851 ft 453 kts 144°
2026-04-27 05:38 -2.02331 106.04443 34851 ft 453 kts 144°
2026-04-27 05:39 -2.07547 106.07978 34849 ft 453 kts 144°
2026-04-27 05:39 -2.12720 106.11483 34850 ft 453 kts 144°
2026-04-27 05:40 -2.17654 106.15417 34849 ft 449 kts 130°
2026-04-27 05:40 -2.21525 106.20258 34854 ft 449 kts 126°
2026-04-27 05:41 -2.25337 106.25196 34848 ft 449 kts 126°
2026-04-27 05:41 -2.29180 106.30123 34850 ft 449 kts 127°
2026-04-27 05:42 -2.33032 106.35048 34850 ft 450 kts 127°
2026-04-27 05:42 -2.36883 106.39972 34849 ft 450 kts 127°
2026-04-27 05:43 -2.40732 106.44897 34851 ft 449 kts 127°
2026-04-27 05:43 -2.44589 106.49833 34849 ft 450 kts 127°
2026-04-27 05:44 -2.48444 106.54768 34841 ft 451 kts 127°
2026-04-27 05:44 -2.52306 106.59710 34839 ft 451 kts 127°
2026-04-27 05:45 -2.56170 106.64652 34840 ft 451 kts 127°
2026-04-27 05:45 -2.60034 106.69595 34840 ft 451 kts 127°
2026-04-27 05:46 -2.63893 106.74545 34839 ft 451 kts 127°
2026-04-27 05:46 -2.67761 106.79494 34840 ft 451 kts 127°
2026-04-27 05:47 -2.71625 106.84443 34841 ft 451 kts 127°
2026-04-27 05:47 -2.75494 106.89394 34843 ft 451 kts 127°
2026-04-27 05:48 -2.79359 106.94345 34840 ft 452 kts 127°
2026-04-27 05:48 -2.83223 106.99296 34841 ft 451 kts 127°
2026-04-27 05:49 -2.87085 107.04244 34841 ft 451 kts 127°
2026-04-27 05:49 -2.90943 107.09185 34840 ft 451 kts 127°
2026-04-27 05:50 -2.94807 107.14136 34837 ft 451 kts 127°
2026-04-27 05:50 -2.98668 107.19085 34840 ft 451 kts 127°
2026-04-27 05:51 -3.02533 107.24037 34841 ft 451 kts 127°
2026-04-27 05:51 -3.06395 107.28992 34841 ft 452 kts 127°
2026-04-27 05:52 -3.10262 107.33946 34841 ft 452 kts 127°
2026-04-27 05:52 -3.14129 107.38905 34842 ft 452 kts 127°
2026-04-27 05:53 -3.17996 107.43864 34840 ft 452 kts 127°
2026-04-27 05:53 -3.21863 107.48823 34832 ft 452 kts 127°
2026-04-27 05:54 -3.25733 107.53780 34818 ft 452 kts 127°
2026-04-27 05:54 -3.29600 107.58735 34832 ft 452 kts 128°
2026-04-27 05:55 -3.34274 107.62910 34821 ft 455 kts 148°
2026-04-27 05:55 -3.40043 107.65567 34834 ft 457 kts 155°
2026-04-27 05:56 -3.45866 107.68022 34819 ft 457 kts 155°
2026-04-27 05:56 -3.51709 107.70533 34831 ft 457 kts 155°
2026-04-27 05:57 -3.57549 107.73054 34830 ft 457 kts 155°
2026-04-27 05:57 -3.63391 107.75576 34830 ft 457 kts 155°
2026-04-27 05:58 -3.69228 107.78095 34815 ft 457 kts 155°
2026-04-27 05:58 -3.75064 107.80614 34823 ft 457 kts 155°
2026-04-27 05:59 -3.80898 107.83133 34814 ft 457 kts 155°
2026-04-27 05:59 -3.86735 107.85653 34823 ft 457 kts 155°
2026-04-27 06:00 -3.95482 107.89430 34821 ft 456 kts 155°
2026-04-27 06:00 -4.01314 107.91949 34816 ft 456 kts 155°
2026-04-27 06:01 -4.07148 107.94469 34821 ft 456 kts 155°
2026-04-27 06:01 -4.12974 107.96987 34808 ft 456 kts 155°
2026-04-27 06:02 -4.18806 107.99509 34814 ft 456 kts 155°
2026-04-27 06:02 -4.24637 108.02031 34809 ft 457 kts 155°
2026-04-27 06:03 -4.30472 108.04554 34807 ft 457 kts 155°
2026-04-27 06:03 -4.36302 108.07075 34816 ft 456 kts 155°
2026-04-27 06:04 -4.42139 108.09597 34822 ft 457 kts 155°
2026-04-27 06:04 -4.46992 108.11695 34824 ft 457 kts 155°
2026-04-27 06:05 -4.52842 108.14225 34821 ft 458 kts 155°
2026-04-27 06:05 -4.58693 108.16757 34814 ft 458 kts 155°
2026-04-27 06:06 -4.64544 108.19289 34827 ft 458 kts 155°
2026-04-27 06:06 -4.70396 108.21821 34823 ft 458 kts 155°
2026-04-27 06:07 -4.76250 108.24356 34823 ft 458 kts 155°
2026-04-27 06:07 -4.82113 108.26894 34818 ft 459 kts 155°
2026-04-27 06:08 -4.87979 108.29434 34826 ft 459 kts 155°
2026-04-27 06:08 -4.93847 108.31977 34821 ft 460 kts 155°
2026-04-27 06:09 -4.99720 108.34521 34814 ft 460 kts 155°
2026-04-27 06:09 -5.05602 108.37070 34827 ft 461 kts 155°
2026-04-27 06:10 -5.11489 108.39621 34819 ft 461 kts 155°
2026-04-27 06:10 -5.17378 108.42175 34827 ft 461 kts 155°
2026-04-27 06:11 -5.23272 108.44729 34814 ft 461 kts 155°
2026-04-27 06:11 -5.29172 108.47289 34813 ft 462 kts 155°
2026-04-27 06:12 -5.35069 108.49847 34822 ft 462 kts 155°
2026-04-27 06:12 -5.40970 108.52406 34828 ft 462 kts 155°
2026-04-27 06:13 -5.46875 108.54968 34829 ft 462 kts 155°
2026-04-27 06:13 -5.52782 108.57531 34821 ft 462 kts 155°
2026-04-27 06:14 -5.58689 108.60095 34824 ft 463 kts 155°
2026-04-27 06:14 -5.64598 108.62661 34829 ft 463 kts 155°
2026-04-27 06:15 -5.70539 108.65244 34814 ft 469 kts 154°
2026-04-27 06:15 -5.76525 108.67844 34816 ft 469 kts 154°
2026-04-27 06:16 -5.82523 108.70450 34823 ft 469 kts 154°
2026-04-27 06:16 -5.88519 108.73054 34815 ft 469 kts 154°
2026-04-27 06:17 -5.94511 108.75659 34813 ft 470 kts 154°
2026-04-27 06:17 -6.00490 108.78261 34815 ft 470 kts 154°
2026-04-27 06:18 -6.06509 108.80878 34818 ft 473 kts 154°
2026-04-27 06:18 -6.12541 108.83502 34825 ft 473 kts 154°
2026-04-27 06:19 -6.18580 108.86130 34825 ft 473 kts 154°
2026-04-27 06:19 -6.24617 108.88758 34821 ft 473 kts 154°
2026-04-27 06:20 -6.30658 108.91390 34818 ft 473 kts 154°
2026-04-27 06:20 -6.36702 108.94020 34812 ft 474 kts 154°
2026-04-27 06:21 -6.42756 108.96656 34819 ft 474 kts 154°